Showing default

TYVAK-0172, 46267

Orbit data source: Space-Track

TYVAK-0172, 46267 is a payload satellite owned by Echostar AU (US) in SSO that was launched on Sun, 30 Aug 2020 UTC via an FALCON 9 launch vehicle from the Air Force Eastern Test Range (AFETR). Payload-class satellites include a variety of spacecraft equipped with specific instruments for various scientific and technological missions. These include communications satellites like Starlink; space stations such as the ISS; scientific satellites like the Hubble; Earth observation satellites from companies like Planet Labs, Umbra, and HawkEye 360; GPS; miniature CubeSats for education and research; and military/defense satellites.

Not visible in the next 10 days
Identifier
46267, 2020-059C
Orbit
SSO
Country
Flag of USUS
Related business
Manufacturer
Tyvak NSS
Mission
Operational Commercial Technology
Bus & Motor
CUBESAT 6U?, Unknown motor
Mass
11 kg wet, 11 kg dry
Launch date (UTC)
2020-08-30 (5 years ago)
Launch vehicle
FALCON 9
Launch site
Air Force Eastern Test Range (AFETR)
Object type
Payload
Rocket body
Debris
Shape & HBR
Box + 2 Pan, Unknown HBR
Radar Cross Section
0.077 m², Medium (>0.1 m² and < 1m²)

Expand to show TLE details & history
Last TLE update: 23 hours ago

TLE from 23 hours ago
0 TYVAK-0172
1 46267U 20059C   25261.21975493  .00044674  00000-0  11648-2 0  9994
2 46267  97.7548 125.9200 0002796 115.3536 244.7998 15.38707143276393
Epoch: 2025-09-18T05:16Z
TLE epoch observation values (Epoch: 2025-09-18T05:16:26.825Z)
Latitude
-0.00006°
Longitude
49.42375°
Altitude
453.85 km
Speed
7.64 km/s
True Right ascension
08h 23m 40s
True Declination
0° 00' 00"
Sunlit
Object was in daylight at epoch
Visualization orbit readout
Latitude
Unknown
Longitude
Unknown
Altitude
Unknown
Speed
Unknown
Apparent Right ascension
Unknown
Apparent Declination
Unknown
Sunlit
N/A
Visualization observer readout
Local Sidereal Time
21:19:39
Azimuth
Unknown
Elevation
Unknown
Doppler factor
Unknown
Orbital elements
Apogee altitude
448.796 km
Perigee altitude
444.979 km
Semi-major axis
6,825.025 km
Eccentricity
0.00028
Inclination
97.7548°
RAAN
125.92°
Arg. of periapsis
115.3536°
True anomaly
244.77081°
Mean anomaly
244.7998°
Eccentric anomaly
244.78531°
Mean motion
3.84934 °/min
Orbital period
93.52 mins
BSTAR
0.0011648
Loading maneuver chart data...
Computing Atmospheric mass density...
Loading historical data...
Loading historical data...
Loading historical data...
Loading historical data...
Loading historical data...
Loading historical data...
Loading historical data...
Other satellites on launch #59 in the year 2020 (2020-08-30 UTC)

Documentation

Showing up to 5 results
|